User: anonymous   Login
Location: Laguna de la Cañada del Gallo
(40.3974°N, 5.2096°W)
Time: 21:47:16
(UTC+00:00)
Language:

Cosmos 1656 - Orbit

View from above orbital plane
View from above orbital plane
View from above satellite
View from above satellite

Ground track
Ground track

The orbit data is extracted from the following two-line orbital elements,

1 15755U 85042A   24170.61617247  .00000078  00000-0  57792-4 0  9999
2 15755  71.1124  12.3557 0034045  33.9959 326.3339 14.20718352 23678
Epoch (UTC): 18 June 2024 14:47:17
Eccentricity: 0.0034045
inclination: 71.1124°
perigee height: 798 km
apogee height: 847 km
right ascension of ascending node: 12.3557°
argument of perigee: 33.9959°
revolutions per day: 14.20718352
mean anomaly at epoch: 326.3339°
orbit number at epoch: 2367

The dashed part of the orbit path shows where the satellite is in the earth's shadow,  

DLR